Regional Weather Roundup
Issued by NWS Newport/Morehead, NC

Current Version | Previous Version | Text Only | Print | Product List | Glossary Off
Versions: 1 2 3 4 5 6 7 8 9 10 11 12 13 14 15 16 17 18 19 20 21 22 23 24 25 26 27 28 29 30 31 32 33 34 35 36 37 38 39 40 41 42 43 44 45 46 47 48 49 50
000 ASUS42 KMHX 142210 RWRMHX WEATHER ROUNDUP FOR EASTERN NORTH CAROLINA NATIONAL WEATHER SERVICE NEWPORT/MOREHEAD CITY NC 600 PM EDT SUN SEP 14 2014 NOTE: "FAIR" INDICATES FEW OR NO CLOUDS BELOW 12,000 FEET WITH NO SIGNIFICANT WEATHER AND/OR OBSTRUCTIONS TO VISIBILITY NCZ015>017-031-032-045>047-102-103-142300- NORTH COAST CITY SKY/WX TMP DP RH WIND PRES REMARKS EDENTON MOSUNNY 73 61 66 E5 30.20S ELIZABETH CITY MOSUNNY 70 57 63 NE10 30.21R KITTY HAWK CLOUDY 68 58 69 NE7 30.20R MANTEO CLOUDY 69 58 69 N12 30.21R $$ NCZ045>047-081-094-103-104-142300- CENTRAL COAST CITY SKY/WX TMP DP RH WIND PRES REMARKS FRISCO CLOUDY 69 65 86 NE9 30.19R SWANQUARTER N/A 72 N/A N/A NE8 30.15S $$ NCZ095-097-098-100-101-142300- SOUTHERN COAST CITY SKY/WX TMP DP RH WIND PRES REMARKS BEAUFORT CLOUDY 74 67 78 N8 30.18R CEDAR ISLAND N/A 73 N/A N/A VRB12 30.24R JACKSONVILLE CLOUDY 73 66 78 N8 30.18S NEWPORT NOT AVBL PINEY ISLAND CLOUDY 75 64 68 N12 30.18R WILMINGTON CLOUDY 73 67 81 N9 30.17F $$ NCZ011>013-027>030-043-044-078>080-089-090>093-098-142300- COASTAL PLAIN CITY SKY/WX TMP DP RH WIND PRES REMARKS AHOSKIE PTSUNNY 68 60 75 N5 30.22S CLINTON CLOUDY 72 65 79 CALM 30.19F ELIZABETHTOWN CLOUDY 69 63 81 CALM 30.19S GOLDSBORO NOT AVBL GREENVILLE CLOUDY 72 63 73 N6 30.21S HAVELOCK CLOUDY 74 65 73 NE6 30.19S KENANSVILLE CLOUDY 71 62 72 CALM 30.20S KINSTON CLOUDY 73 63 68 N6 30.20S NEW BERN CLOUDY 75 65 70 NE7 30.20S RICHLANDS CLOUDY 72 63 73 NW3 30.19S ROANOKE RAPIDS NOT AVBL ROCKY MOUNT PTSUNNY 70 61 73 N10 30.21S WASHINGTON MOSUNNY 73 62 68 N7 30.20R WHITEVILLE CLOUDY 70 64 83 CALM 30.18S $$ AMZ130-135-150-152-154-156-158-170-250-252-270-ANZ085-086-088-633-658-670-142300- MARINE OBSERVATIONS STATION/POSITION TIME TEMP WIND PRES WAVE SWELL AIR SEA DIR/SP/G HT/PER HT/PER (UTC) (F) (DEG/KT/KT) (MB) (FT/S) (FT/S) CHESAPEAKE LIGHT 2100 67 20/ 10/ 12 1023.4 BUOY 44014 2200 71 80 10/ 14/ 16 1021.8 4/ 7 3/ 7 DUCK 2200 68 77 10/ 14/ 18 1021.8 2E DUCK 2200 N/A 4/ 7 OREGON INLET 2200 69 77 360/ 9/ 15 1022.6 BUOY 44095 2200 76 N/A 6/ 7 20E OREGON INLET NOT AVBL HATTERAS CG 2200 72 80 30/ 13/ 21 1022.6 DIAMOND BUOY 2200 74 360/ 17/ 21 1021.2 4/ 8 2/ 8 CAPE LOOKOUT 2100 75 30/ 12/ 16 1021.4 BEAUFORT LAB 2200 74 81 20/ 7/ 10 1021.5 30 SE NEW RIVER 2200 76 82 30/ 16/ 19 1021.3 3/ 5 2/ 9 5 SE WRIGHTSVILL 2100 72 82 10/ 12/ 14 N/A BUOY 41002 2053 79 83 250/ 4/ 6 1020.5 2/ 4 2/ 4 BUOY 41004 2200 80 83 80/ 4/ 6 1020.0 2/ 4 2/ 5 $$

USA.gov is the U.S. government's official web portal to all federal, state and local government web resources and services.